When you browse on this site, cookies collect data to enhance your experience and personalize the content and advertising you see.
Visit our Privacy Policy to learn more. By continuing to use the site, you agree to this use of cookies and data.
  • In Hungary
  • List of Countries
  • For 7 days
  • Water Temperature
  • Satellite Maps
  • Weather Map
  • News
  • Weather Widgets
  • user-avatar
    Login

    Hourly Weather Darabani

    Today, 24 March, Sunday

    Time Temperature Precipitation Wind Pressure Humidity
    00:00 +7°C° 0 mm 1 mps 752 mmHg 48%
    01:00 +6°C° 0 mm 1 mps 752 mmHg 49%
    02:00 +5°C° 0 mm 1 mps 752 mmHg 49%
    03:00 +5°C° 0 mm 1 mps 751 mmHg 50%
    04:00 +5°C° 0 mm 1 mps 751 mmHg 51%
    05:00 +5°C° 0 mm 1 mps 751 mmHg 51%
    06:00 +5°C° 0 mm 1 mps 750 mmHg 50%
    07:00 +6°C° 0 mm 1 mps 750 mmHg 48%
    08:00 +7°C° 0 mm 1 mps 750 mmHg 46%
    09:00 +8°C° 0 mm 2 mps 749 mmHg 41%
    10:00 +10°C° 0 mm 3 mps 749 mmHg 36%
    11:00 +12°C° 0 mm 4 mps 749 mmHg 31%
    12:00 +10°C° 0 mm 5 mps 748 mmHg 42%
    13:00 +10°C° 0 mm 5 mps 748 mmHg 52%
    14:00 +9°C° 0 mm 6 mps 747 mmHg 62%
    15:00 +10°C° 0 mm 6 mps 747 mmHg 62%
    16:00 +11°C° 0 mm 6 mps 747 mmHg 61%
    17:00 +13°C° 0 mm 6 mps 747 mmHg 60%
    18:00 +12°C° 0 mm 5 mps 747 mmHg 63%
    19:00 +10°C° 0 mm 4 mps 747 mmHg 67%
    20:00 +9°C° 0 mm 3 mps 747 mmHg 71%
    21:00 +9°C° 0 mm 2 mps 747 mmHg 71%
    22:00 +8°C° 0 mm 2 mps 747 mmHg 71%
    23:00 +8°C° 0 mm 1 mps 747 mmHg 71%

    Tomorrow, 25 March, Monday

    Time Temperature Precipitation Wind Pressure Humidity
    00:00 +8°C° 0 mm 1 mps 747 mmHg 71%
    01:00 +6°C° 0 mm 0 mps 747 mmHg 72%
    02:00 +6°C° 0 mm 0 mps 746 mmHg 73%
    03:00 +6°C° 0.3 mm 0 mps 745 mmHg 74%
    04:00 +7°C° 0.3 mm 1 mps 745 mmHg 75%
    05:00 +7°C° 0.3 mm 1 mps 744 mmHg 77%
    06:00 +6°C° 1.1 mm 2 mps 744 mmHg 79%
    07:00 +6°C° 1.1 mm 2 mps 743 mmHg 81%
    08:00 +5°C° 1.1 mm 3 mps 743 mmHg 83%
    09:00 +7°C° 0 mm 3 mps 742 mmHg 78%
    10:00 +9°C° 0 mm 2 mps 742 mmHg 74%
    11:00 +10°C° 0 mm 2 mps 742 mmHg 69%
    12:00 +10°C° 0.6 mm 2 mps 741 mmHg 71%
    13:00 +9°C° 0.6 mm 2 mps 741 mmHg 73%
    14:00 +9°C° 0.6 mm 2 mps 741 mmHg 75%
    15:00 +9°C° 0 mm 3 mps 741 mmHg 73%
    16:00 +9°C° 0 mm 3 mps 740 mmHg 72%
    17:00 +9°C° 0 mm 3 mps 740 mmHg 70%
    18:00 +9°C° 0 mm 3 mps 741 mmHg 72%
    19:00 +8°C° 0 mm 2 mps 741 mmHg 74%
    20:00 +8°C° 0 mm 2 mps 741 mmHg 76%
    21:00 +8°C° 0.1 mm 2 mps 742 mmHg 78%
    22:00 +8°C° 0.1 mm 1 mps 742 mmHg 79%
    23:00 +8°C° 0.1 mm 1 mps 742 mmHg 80%

    Day after tomorrow, 26 March, Tuesday

    Time Temperature Precipitation Wind Pressure Humidity
    00:00 +8°C° 0 mm 1 mps 743 mmHg 81%
    01:00 +7°C° 0 mm 2 mps 743 mmHg 82%
    02:00 +6°C° 0 mm 2 mps 743 mmHg 84%
    03:00 +5°C° 0.2 mm 3 mps 743 mmHg 82%
    04:00 +5°C° 0.2 mm 4 mps 744 mmHg 81%
    05:00 +5°C° 0.2 mm 5 mps 744 mmHg 80%
    06:00 +5°C° 0.1 mm 5 mps 745 mmHg 77%
    07:00 +4°C° 0.1 mm 6 mps 745 mmHg 74%
    08:00 +4°C° 0.1 mm 6 mps 746 mmHg 72%
    09:00 +5°C° 0 mm 6 mps 747 mmHg 67%
    10:00 +5°C° 0 mm 7 mps 747 mmHg 62%
    11:00 +6°C° 0 mm 7 mps 747 mmHg 57%
    12:00 +6°C° 0 mm 7 mps 748 mmHg 54%
    13:00 +8°C° 0 mm 7 mps 748 mmHg 51%
    14:00 +7°C° 0 mm 8 mps 748 mmHg 49%
    15:00 +6°C° 0 mm 7 mps 748 mmHg 50%
    16:00 +6°C° 0 mm 7 mps 748 mmHg 51%
    17:00 +5°C° 0 mm 7 mps 748 mmHg 52%
    18:00 +4°C° 0 mm 6 mps 748 mmHg 55%
    19:00 +5°C° 0 mm 5 mps 749 mmHg 58%
    20:00 +4°C° 0 mm 4 mps 749 mmHg 61%
    21:00 +4°C° 0 mm 4 mps 749 mmHg 61%
    22:00 +3°C° 0 mm 4 mps 749 mmHg 61%
    23:00 +3°C° 0 mm 4 mps 749 mmHg 61%

    27 March, Wednesday

    Time Temperature Precipitation Wind Pressure Humidity
    00:00 +2°C° 0 mm 5 mps 749 mmHg 61%
    01:00 +2°C° 0 mm 5 mps 749 mmHg 60%
    02:00 +2°C° 0 mm 6 mps 749 mmHg 60%
    03:00 +1°C° 0 mm 6 mps 750 mmHg 65%
    04:00 +1°C° 0 mm 6 mps 750 mmHg 71%
    05:00 +1°C° 0 mm 5 mps 750 mmHg 77%
    06:00 0°C° 0 mm 5 mps 751 mmHg 69%
    07:00 0°C° 0 mm 5 mps 752 mmHg 61%
    08:00 0°C° 0 mm 5 mps 752 mmHg 53%
    09:00 +1°C° 0 mm 5 mps 753 mmHg 48%
    10:00 +2°C° 0 mm 5 mps 753 mmHg 44%
    11:00 +3°C° 0 mm 5 mps 753 mmHg 39%
    12:00 +5°C° 0 mm 5 mps 753 mmHg 37%
    13:00 +5°C° 0 mm 5 mps 753 mmHg 35%
    14:00 +6°C° 0 mm 4 mps 754 mmHg 33%
    15:00 +6°C° 0 mm 4 mps 754 mmHg 33%
    16:00 +6°C° 0 mm 4 mps 754 mmHg 34%
    17:00 +6°C° 0 mm 4 mps 754 mmHg 34%
    18:00 +5°C° 0 mm 3 mps 754 mmHg 38%
    19:00 +5°C° 0 mm 2 mps 755 mmHg 43%
    20:00 +4°C° 0 mm 2 mps 756 mmHg 47%
    21:00 +5°C° 0 mm 1 mps 756 mmHg 49%
    22:00 +4°C° 0 mm 1 mps 756 mmHg 51%
    23:00 +4°C° 0 mm 1 mps 757 mmHg 53%

    28 March, Thursday

    Time Temperature Precipitation Wind Pressure Humidity
    00:00 +3°C° 0 mm 1 mps 757 mmHg 54%
    01:00 +3°C° 0 mm 1 mps 757 mmHg 56%
    02:00 +3°C° 0 mm 1 mps 757 mmHg 57%
    03:00 +2°C° 0 mm 1 mps 757 mmHg 58%
    04:00 +2°C° 0 mm 1 mps 757 mmHg 59%
    05:00 +2°C° 0 mm 1 mps 757 mmHg 60%
    06:00 +2°C° 0 mm 1 mps 758 mmHg 57%
    07:00 +3°C° 0 mm 1 mps 758 mmHg 53%
    08:00 +4°C° 0 mm 1 mps 758 mmHg 50%
    09:00 +6°C° 0 mm 1 mps 758 mmHg 46%
    10:00 +6°C° 0 mm 0 mps 758 mmHg 41%
    11:00 +8°C° 0 mm 0 mps 758 mmHg 37%
    12:00 +8°C° 0 mm 0 mps 757 mmHg 37%
    13:00 +9°C° 0 mm 0 mps 757 mmHg 36%
    14:00 +11°C° 0 mm 1 mps 757 mmHg 35%
    15:00 +10°C° 0 mm 0 mps 757 mmHg 36%
    16:00 +10°C° 0 mm 0 mps 756 mmHg 36%
    17:00 +10°C° 0 mm 0 mps 756 mmHg 36%
    18:00 +10°C° 0 mm 1 mps 756 mmHg 39%
    19:00 +9°C° 0 mm 1 mps 756 mmHg 43%
    20:00 +8°C° 0 mm 1 mps 757 mmHg 46%
    21:00 +8°C° 0 mm 1 mps 757 mmHg 47%
    22:00 +7°C° 0 mm 1 mps 757 mmHg 49%
    23:00 +7°C° 0 mm 1 mps 757 mmHg 50%

    29 March, Friday

    Time Temperature Precipitation Wind Pressure Humidity
    00:00 +6°C° 0 mm 2 mps 757 mmHg 51%
    01:00 +5°C° 0 mm 2 mps 757 mmHg 53%
    02:00 +5°C° 0 mm 2 mps 757 mmHg 54%
    03:00 +4°C° 0 mm 2 mps 757 mmHg 55%
    04:00 +4°C° 0 mm 2 mps 756 mmHg 55%
    05:00 +5°C° 0 mm 1 mps 756 mmHg 56%
    06:00 +4°C° 0 mm 2 mps 756 mmHg 55%
    07:00 +5°C° 0 mm 2 mps 756 mmHg 54%
    08:00 +6°C° 0 mm 2 mps 756 mmHg 53%
    09:00 +8°C° 0 mm 2 mps 756 mmHg 49%
    10:00 +9°C° 0 mm 3 mps 756 mmHg 46%
    11:00 +11°C° 0 mm 3 mps 755 mmHg 42%
    12:00 +12°C° 0 mm 4 mps 755 mmHg 42%
    13:00 +12°C° 0 mm 4 mps 754 mmHg 43%
    14:00 +13°C° 0 mm 5 mps 754 mmHg 43%
    15:00 +13°C° 0 mm 5 mps 754 mmHg 45%
    16:00 +13°C° 0 mm 5 mps 753 mmHg 46%
    17:00 +13°C° 0 mm 5 mps 753 mmHg 48%
    18:00 +12°C° 0 mm 5 mps 753 mmHg 53%
    19:00 +10°C° 0 mm 4 mps 753 mmHg 58%
    20:00 +9°C° 0 mm 3 mps 753 mmHg 63%
    21:00 +9°C° 0 mm 3 mps 753 mmHg 66%
    22:00 +8°C° 0 mm 3 mps 754 mmHg 69%
    23:00 +7°C° 0 mm 4 mps 754 mmHg 71%
    Show more